This demonstration page uses our WeatherBlox Daily Observations layout. Learn more.

Left ArrowRight Arrow

Hourly Observations for January 19, 2022

Temp ( °F °C ) Dew Point ( °F °C ) Humidity (%) Winds ( mph kmh ) Pressure ( in mb ) Visibility ( mi km ) Precip ( " mm )
12:15 am 00:15 Clear 28 -2.5 16 -8.9 62 62 N 17 28 30.22 1023 10 16 0.00 0.00
12:35 am 00:35 Mostly Cloudy 27 -3 15 -9.5 61 61 N 16 26 30.24 1024 10 16 0.00 0.00
12:55 am 00:55 Cloudy 26 -3.3 14 -10 60 60 N 16 26 30.25 1024 10 16 0.00 0.00
1:15 am 01:15 Cloudy 26 -3.3 14 -10.1 60 60 N 18 30 30.26 1025 10 16 0.00 0.00
1:35 am 01:35 Cloudy 26 -3.5 13 -10.5 59 59 N 21 33 30.26 1025 10 16 0.00 0.00
1:55 am 01:55 Cloudy 25 -3.7 13 -10.6 59 59 N 18 30 30.27 1025 10 16 0.00 0.00
2:15 am 02:15 Cloudy 25 -4 12 -11.3 57 57 NNE 25 41 30.29 1026 10 16 0.00 0.00
2:35 am 02:35 Cloudy 24 -4.2 14 -10.2 63 63 N 15 24 30.31 1026 10 16 0.00 0.00
2:55 am 02:55 Cloudy 23 -4.8 9 -12.8 54 54 N 21 33 30.33 1027 10 16 0.00 0.00
3:15 am 03:15 Cloudy 23 -5.2 8 -13.2 54 54 N 23 37 30.34 1027 10 16 0.00 0.00
3:35 am 03:35 Cloudy 22 -5.5 9 -13 56 56 N 18 30 30.35 1028 10 16 0.00 0.00
3:55 am 03:55 Cloudy 21 -6 8 -13.6 55 55 N 22 35 30.36 1028 10 16 0.00 0.00
4:15 am 04:15 Cloudy 21 -6.3 6 -14.5 53 53 N 20 31 30.37 1029 10 16 0.00 0.00
4:35 am 04:35 Cloudy 21 -6.3 6 -14.5 53 53 N 21 33 30.38 1029 10 16 0.00 0.00
4:55 am 04:55 Cloudy 20 -6.5 7 -14.1 55 55 N 17 28 30.39 1029 10 16 0.00 0.00
5:15 am 05:15 Cloudy 20 -6.6 6 -14.4 54 54 N 24 39 30.41 1030 10 16 0.00 0.00
5:35 am 05:35 Cloudy 20 -6.9 5 -15 53 53 N 23 37 30.42 1030 10 16 0.00 0.00
5:55 am 05:55 Cloudy 19 -7.5 4 -15.7 52 52 N 22 35 30.44 1031 10 16 0.00 0.00
6:15 am 06:15 Windy with Snow Likely 18 -8 6 -14.5 60 60 N 23 37 30.45 1031 7 11 0.00 0.00
6:35 am 06:35 Cloudy with Light Snow 17 -8.1 6 -14.5 60 60 N 16 26 30.46 1032 10 16 0.00 0.00
6:55 am 06:55 Cloudy with Light Snow 17 -8.3 7 -13.8 65 65 N 17 28 30.47 1032 5 8 0.00 0.00
7:15 am 07:15 Cloudy with Light Snow 17 -8.5 7 -13.9 65 65 N 17 28 30.50 1033 10 16 0.00 0.00
7:35 am 07:35 Cloudy 17 -8.5 6 -14.5 62 62 N 14 22 30.51 1033 10 16 0.00 0.00
7:55 am 07:55 Cloudy 16 -8.7 5 -15 61 61 NNE 14 22 30.52 1033 10 16 0.00 0.00
8:15 am 08:15 Cloudy 15 -9.2 4 -15.8 59 59 N 17 28 30.53 1034 10 16 0.00 0.00
8:35 am 08:35 Cloudy 15 -9.3 4 -15.6 61 61 N 17 28 30.55 1034 10 16 0.00 0.00
8:55 am 08:55 Cloudy 15 -9.5 3 -16 60 60 N 21 33 30.57 1035 10 16 0.00 0.00
9:15 am 09:15 Cloudy 15 -9.5 3 -16.1 59 59 N 18 30 30.58 1035 10 16 0.00 0.00
9:35 am 09:35 Cloudy 15 -9.3 2 -16.4 57 57 N 22 35 30.59 1036 10 16 0.00 0.00
9:55 am 09:55 Cloudy 15 -9.5 1 -17.1 54 54 N 22 35 30.61 1036 10 16 0.00 0.00
10:15 am 10:15 Cloudy 15 -9.4 1 -17.3 53 53 N 22 35 30.62 1037 10 16 0.00 0.00
10:35 am 10:35 Cloudy 15 -9.3 1 -17.3 53 53 N 20 31 30.62 1037 10 16 0.00 0.00
10:55 am 10:55 Cloudy 15 -9.6 0 -18 51 51 N 17 28 30.64 1038 10 16 0.00 0.00
11:15 am 11:15 Cloudy 15 -9.6 0 -18 51 51 N 18 30 30.65 1038 10 16 0.00 0.00
11:35 am 11:35 Cloudy 15 -9.5 -1 -18.2 50 50 N 20 31 30.65 1038 10 16 0.00 0.00
11:55 am 11:55 Cloudy 15 -9.6 -2 -18.7 48 48 N 18 30 30.66 1038 10 16 0.00 0.00
12:15 pm 12:15 Cloudy 15 -9.2 -2 -19 45 45 N 16 26 30.65 1038 10 16 0.00 0.00
12:35 pm 12:35 Cloudy 16 -9.1 -3 -19.2 44 44 N 20 31 30.65 1038 10 16 0.00 0.00
12:55 pm 12:55 Cloudy 15 -9.3 -3 -19.4 44 44 N 16 26 30.66 1038 10 16 0.00 0.00
1:15 pm 13:15 Cloudy 15 -9.3 -3 -19.4 44 44 N 15 24 30.66 1038 10 16 0.00 0.00
1:35 pm 13:35 Cloudy 16 -8.9 -3 -19.2 43 43 N 17 28 30.65 1038 10 16 0.00 0.00
1:55 pm 13:55 Cloudy 17 -8.5 -3 -19.7 40 40 N 17 28 30.65 1038 10 16 0.00 0.00
2:15 pm 14:15 Cloudy 17 -8.4 -4 -20 39 39 NNW 16 26 30.65 1038 10 16 0.00 0.00
2:35 pm 14:35 Cloudy 17 -8.1 -4 -20 38 38 N 18 30 30.64 1038 10 16 0.00 0.00
2:55 pm 14:55 Cloudy 17 -8.4 -4 -20.1 39 39 N 18 30 30.66 1038 10 16 0.00 0.00
3:15 pm 15:15 Cloudy 17 -8.1 -4 -20.1 38 38 N 15 24 30.65 1038 10 16 0.00 0.00
3:35 pm 15:35 Partly Cloudy 17 -8.2 -5 -20.3 37 37 N 17 28 30.65 1038 10 16 0.00 0.00
3:55 pm 15:55 Partly Cloudy 17 -8.4 -5 -20.4 38 38 N 10 17 30.67 1038 10 16 0.00 0.00
4:15 pm 16:15 Cloudy 17 -8.3 -5 -20.6 37 37 N 10 17 30.67 1038 10 16 0.00 0.00
4:35 pm 16:35 Cloudy 17 -8.2 -5 -20.7 36 36 N 15 24 30.67 1039 10 16 0.00 0.00
4:55 pm 16:55 Partly Cloudy 16 -8.7 -6 -21.2 36 36 N 17 28 30.68 1039 10 16 0.00 0.00
5:15 pm 17:15 Sunny 15 -9.3 -6 -21 38 38 N 10 17 30.69 1039 10 16 0.00 0.00
5:35 pm 17:35 Sunny 15 -9.7 -5 -20.8 40 40 N 12 19 30.70 1040 10 16 0.00 0.00
5:55 pm 17:55 Clear 14 -10.1 -6 -21 41 41 N 9 15 30.71 1040 10 16 0.00 0.00
6:15 pm 18:15 Clear 13 -10.7 -6 -21 43 43 N 8 13 30.73 1041 10 16 0.00 0.00
6:35 pm 18:35 Clear 12 -11.3 -6 -21 45 45 N 6 9 30.75 1041 10 16 0.00 0.00
6:55 pm 18:55 Clear 10 -12.2 -5 -20.8 49 49 N 7 11 30.76 1042 10 16 0.00 0.00
7:15 pm 19:15 Clear 9 -12.6 -5 -20.6 52 52 N 7 11 30.78 1042 10 16 0.00 0.00
7:35 pm 19:35 Clear 9 -12.9 -5 -20.6 53 53 NNE 8 13 30.79 1043 10 16 0.00 0.00
7:55 pm 19:55 Clear 8 -13.3 -5 -20.8 54 54 N 8 13 30.80 1043 10 16 0.00 0.00
8:15 pm 20:15 Clear 8 -13.4 -6 -20.9 54 54 NNE 9 15 30.81 1043 10 16 0.00 0.00
8:35 pm 20:35 Clear 9 -13 -6 -20.9 52 52 NNE 8 13 30.81 1043 10 16 0.00 0.00
8:55 pm 20:55 Clear 8 -13.5 -6 -21 54 54 N 7 11 30.82 1044 10 16 0.00 0.00
9:15 pm 21:15 Clear 8 -13.6 -5 -20.7 55 55 NNE 7 11 30.82 1044 10 16 0.00 0.00
9:35 pm 21:35 Mostly Cloudy 8 -13.2 -5 -20.7 54 54 NNE 7 11 30.82 1044 10 16 0.00 0.00
9:55 pm 21:55 Mostly Cloudy 8 -13.5 -5 -20.6 55 55 N 9 15 30.82 1044 10 16 0.00 0.00
10:15 pm 22:15 Mostly Cloudy 7 -14 -5 -20.6 58 58 N 7 11 30.83 1044 10 16 0.00 0.00
10:35 pm 22:35 Partly Cloudy 6 -14.5 -5 -20.8 59 59 NNE 7 11 30.83 1044 10 16 0.00 0.00
10:55 pm 22:55 Partly Cloudy 6 -14.5 -6 -21.1 58 58 N 6 9 30.84 1045 10 16 0.00 0.00
11:15 pm 23:15 Cloudy 5 -15.2 -6 -21 61 61 Calm 30.85 1045 10 16 0.00 0.00
11:35 pm 23:35 Partly Cloudy 5 -15.1 -6 -21.2 60 60 Calm 30.85 1045 10 16 0.00 0.00
11:55 pm 23:55 Clear 4 -15.3 -6 -21.2 61 61 Calm 30.85 1045 10 16 0.00 0.00

Powered by AerisWeather